Preview of NWS' New Version of Forecast
This preview is not operational and should not be used for support decisions.

Regional Weather Roundup (RWR)

Issued by National Weather Service (NWS)

                            
000
ASUS43 KDTX 211710
RWRMI 
MICHIGAN HOURLY REGIONAL WEATHER ROUNDUP
NATIONAL WEATHER SERVICE DETROIT/PONTIAC MI
100 PM EDT SUN APR 21 2019

NOTE: "FAIR" INDICATES FEW OR NO CLOUDS BELOW 12,000 FEET WITH NO
SIGNIFICANT WEATHER AND/OR OBSTRUCTION TO VISIBILITY.

MIZ047>049-052>055-059>063-066>070-074>076-081>083-211800-
SOUTHEAST LOWER MICHIGAN
  
CITY           SKY/WX    TMP DP  RH WIND       PRES   REMARKS
ADRIAN         FAIR      58  44  60 VRB5      30.07S                  
ALMA           FAIR      65  33  30 SW6       30.04S                  
ANN ARBOR      FAIR      60  42  51 VRB3      30.05R                  
BAD AXE        CLOUDY    56  40  55 W7        30.03S                  
CARO           CLOUDY    57  44  62 CALM      30.04R                  
DETROIT CITY   FAIR      60  41  49 VRB5      30.05R                  
DETROIT        FAIR      59  39  47 VRB6      30.06R                  
FLINT          CLOUDY    58  43  57 SW6       30.05R                  
GROSSE ILE     FAIR      50  45  84 S9        30.06S                  
HILLSDALE      FAIR      61  34  36 SW3       30.06R                  
HOWELL         FAIR      60  38  43 W6        30.05R                  

CITY           SKY/WX    TMP DP  RH WIND       PRES   REMARKS
JACKSON        FAIR      61  42  49 SW5       30.05S                  
LAMBERTVILLE   FAIR      58  48  70 CALM      30.07R                  
LANSING        FAIR      62  38  40 W7        30.05R                  
LAPEER         FAIR      58  43  56 CALM      30.05S                  
MASON          FAIR      61  38  42 NW7       30.06R                  
MONROE         FAIR      57  51  80 CALM      30.06S                  
MT. CLEMENS    PTSUNNY   58  49  70 SE9       30.04R                  
PONTIAC        FAIR      60  41  49 VRB3      30.03S                  
PORT HOPE        N/A     44  40  85 SE7       30.03R                  
PORT HURON     CLOUDY    59  37  44 CALM      30.05R                  
TRI CITIES     CLOUDY    61  41  47 SW9       30.03F                  
MIDLAND        CLOUDY    64  38  38 SW6       30.02S                  
TROY           FAIR      61  31  31 CALM      30.06S                  
SAGINAW HB     CLOUDY    61  41  48 SW7       30.03S                  
$$
MIZ043>046-050>051-056>058-064>065-071>073-077>080-211800-
SOUTHWEST LOWER MICHIGAN
  
CITY           SKY/WX    TMP DP  RH WIND       PRES   REMARKS
BATTLE CREEK   FAIR      63  40  42 S10       30.06R                  
BENTON HARBOR  FAIR      65  30  27 S5        30.05S                  
BIG RAPIDS     FAIR      66  31  26 W8        30.01R                  
COLDWATER      FAIR      61  41  48 W6        30.07R                  
FREMONT        PTSUNNY   64  18  17 S10       30.02S                  
HOLLAND        FAIR      65  34  31 SW5       30.04S                  
GRAND RAPIDS   PTSUNNY   63  39  41 SW7       30.04S                  
IONIA          FAIR      63  35  35 W7        30.04S                  
KALAMAZOO      FAIR      63  38  39 SW8       30.06S                  
LUDINGTON      FAIR      65  22  19 S10       30.00S                  
MARSHALL       FAIR      62  41  46 W3        30.05S                  
MOUNT PLEASANT PTSUNNY   66  33  29 S8        30.01S                  
MUSKEGON       PTSUNNY   63  19  18 SW14      30.03S                  
SOUTH HAVEN    FAIR      66  29  24 CALM      30.05R                  
$$
MIZ016>042-211800-
NORTHERN LOWER MICHIGAN
  
CITY           SKY/WX    TMP DP  RH WIND       PRES   REMARKS
ALPENA         CLOUDY    58  26  29 W3        30.02S                  
BEAVER ISLAND  PTSUNNY   51  25  36 SW7       29.98F                  
BELLAIRE       PTSUNNY   63  31  29 CALM      29.99S                  
CADILLAC       FAIR      68  30  24 SW9       30.00R                  
CHARLEVOIX     CLOUDY    52  35  54 CALM      30.03S                  
FRANKFORT      PTSUNNY   66  23  20 W8        29.98F                  
GAYLORD        PTSUNNY   58  32  37 S3        30.00R                  
GRAYLING       FAIR      63  32  31 SE3       30.00R                  
HARBOR SPRINGS CLOUDY    55  32  42 CALM      30.01S                  
HOUGHTON LAKE  FAIR      63  31  30 VRB3      30.02R                  
MANISTEE       FAIR      66  26  22 S9        29.98F                  
OSCODA         FAIR      62  32  32 E3        30.01F                  
PELLSTON       CLOUDY    55  28  35 SE3       30.01R                  
ROGERS CITY    CLOUDY    49  26  40 CALM      30.03R                  
TRAVERSE CITY  FAIR      68  36  30 SW12      29.97R                  
$$
MIZ007>008-015-211800-
EASTERN UPPER MICHIGAN
  
CITY           SKY/WX    TMP DP  RH WIND       PRES   REMARKS
KINROSS        CLOUDY    52  27  38 W6        30.01R                  
MACKINAC ISLAN CLOUDY    51  30  43 CALM      30.00F                  
NEWBERRY       CLOUDY    46  32  57 CALM      29.98R                  
S. S. MARIE    CLOUDY    54  29  38 S3        30.00R                  
MUNISING         N/A     36  32  85 NE6       29.98R WCI  31          
$$
MIZ004>006-011>014-085-211800-
CENTRAL UPPER MICHIGAN
  
CITY           SKY/WX    TMP DP  RH WIND       PRES   REMARKS
MANISTIQUE     PTSUNNY   47  31  53 SE7       29.97R                  
ESCANABA       FAIR      53  39  59 VRB7      29.97R                  
MENOMINEE      CLOUDY    59  34  39 E7        29.96R                  
SAWYER-GWINN   CLOUDY    48  30  49 NE10      29.97R                  
$$
MIZ001>003-009>011-084-211800-
WESTERN UPPER MICHIGAN
  
CITY           SKY/WX    TMP DP  RH WIND       PRES   REMARKS
IRON MOUNTAIN  CLOUDY    58  38  47 N9        29.95R                  
HOUGHTON       PTSUNNY   46  35  65 E8        30.00R                  
COPPER HARBOR    N/A     39  35  86 E3        30.03R                  
IRONWOOD       CLOUDY    53  36  52 VRB5      30.01R                  
$$

ABBREVIATIONS USED IN REMARKS
   TC - TEMPERATURE IN CELSIUS
  WCI - WIND CHILL INDEX
   HX - HEAT INDEX
  VSB - VISIBILITY